[[{"header":{"parameterUnit":"m.s-1","parameterCategory":1,"la1":30.2991,"la2":30.254,"lo1":-89.0895,"lo2":-89.0444,"dy":0.0017,"dx":0.0017,"nx":28,"ny":28,"refTime":"2023-09-23T03:00:00:Z","depth":0,"parameterNumber":2,"parameterNumberName":"U-component_of_WINDS"},"data":[0,0,0,0,0,0,0,0,0,0,0,0,0,0,0,0,0,0,0,0,0,0,0,0,0,0,0,0,0,0,0,0,0,0,0,0,0,0,0,0,0,0,0,0,0,0,0,0,0,0,0,0,0,0,0,0,0,0,-1.1988,-1.1988,0,-1.1953,-1.1953,-1.1952,-1.1887,-1.1886,-1.1884,-1.1883,-1.1849,-1.1849,-1.185,0,0,0,0,0,0,0,0,0,0,0,0,0,-1.2003,-1.2003,-1.1988,-1.1988,-1.1987,-1.1953,-1.1953,-1.1952,-1.1887,-1.1886,-1.1884,-1.1883,-1.1849,-1.1849,-1.185,0,0,0,0,0,0,0,0,0,0,0,0,0,-1.1985,-1.2003,-1.1988,-1.1951,-1.1947,-1.1953,-1.1953,-1.1952,-1.1887,-1.1886,-1.1884,-1.1882,-1.1849,-1.1849,-1.185,-1.189,0,0,-1.1851,-1.1851,0,0,0,0,0,0,0,0,-1.1987,-1.1985,-1.1957,-1.1953,-1.1949,-1.1922,-1.1945,-1.1931,-1.1888,-1.191,-1.1883,-1.1881,-1.1875,-1.1873,-1.1871,-1.1889,-1.1887,-1.1851,-1.1851,-1.1851,-1.1852,0,0,0,0,0,0,0,-1.1988,-1.1986,-1.1974,-1.1956,-1.1952,-1.1937,-1.1932,-1.1942,-1.1904,-1.1908,-1.1903,-1.19,-1.1873,-1.1871,-1.187,-1.1887,-1.1851,-1.1851,-1.1852,-1.1852,-1.194,-1.1942,0,0,0,0,0,0,-1.1994,-1.1988,-1.1975,-1.1973,-1.1964,-1.1938,-1.1933,-1.1933,-1.1903,-1.1897,-1.1901,-1.1897,-1.1871,-1.1869,-1.1868,-1.1916,-1.1851,-1.1852,-1.1852,-1.1938,-1.194,-1.1942,0,0,0,0,0,0,-1.1995,-1.1994,-1.1977,-1.1979,-1.1976,-1.194,-1.194,-1.1933,-1.1931,-1.1898,-1.1892,-1.1906,-1.1869,-1.1868,-1.1886,-1.1914,-1.1852,-1.1852,-1.1935,-1.1938,-1.1941,-1.2011,0,0,0,0,0,0,-1.1995,-1.1994,-1.2008,-1.198,-1.1976,-1.1994,-1.1942,-1.1934,-1.1932,-1.1925,-1.1901,-1.1895,-1.1868,-1.1886,-1.1886,-1.1913,-1.1853,-1.1932,-1.1937,-1.194,-1.2006,-1.2016,-1.2025,0,0,0,0,0,-1.1996,-1.2029,-1.2009,-1.2008,-1.1992,-1.1996,-1.1994,-1.1961,-1.1934,-1.1949,-1.1928,-1.1896,-1.1911,-1.1888,-1.1888,-1.1916,-1.1931,-1.1935,-1.194,-1.2002,-1.2014,-1.2024,0,0,0,0,0,0,-1.2061,-1.2024,-1.2002,-1.2026,-1.2015,-1.1985,-1.2002,-1.1974,-1.197,-1.1965,-1.1925,-1.192,-1.1944,-1.1931,-1.1907,-1.1955,-1.1916,-1.1921,-1.1963,-1.1974,-1.1983,-1.1986,-1.1853,0,0,0,0,0,-1.2079,-1.2083,-1.2051,-1.2076,-1.2071,-1.2038,-1.2038,-1.2014,-1.2,-1.1995,-1.1976,-1.1965,-1.1968,-1.197,-1.197,-1.2004,-1.1999,-1.2023,-1.2032,-1.204,-1.2045,-1.2065,-1.2076,-1.1958,-1.1958,-1.1958,0,0,-1.2114,-1.2095,-1.21,-1.2089,-1.2077,-1.2084,-1.2034,-1.2043,-1.2049,-1.1997,-1.2013,-1.1999,-1.1985,-1.2012,-1.2023,-1.2002,-1.2077,-1.2046,-1.2053,-1.2053,-1.2071,-1.2083,-1.2093,-1.1961,-1.196,-1.196,0,0,-1.2183,-1.2168,-1.2188,-1.2178,-1.216,-1.2138,-1.2144,-1.2118,-1.2107,-1.2123,-1.2085,-1.2092,-1.2096,-1.2088,-1.2084,-1.2154,-1.2125,-1.2155,-1.2204,-1.2224,-1.2233,-1.2242,-1.2269,-1.2279,-1.216,-1.216,-1.216,0,-1.223,-1.2238,-1.2202,-1.2215,-1.2212,-1.2165,-1.2187,-1.2178,-1.2163,-1.2163,-1.214,-1.2146,-1.2132,-1.2158,-1.2176,-1.2174,-1.218,-1.2158,-1.2235,-1.2243,-1.225,-1.2275,-1.2285,-1.2164,-1.2164,-1.2163,-1.2163,0,-1.2298,-1.2305,-1.2324,-1.231,-1.2309,-1.2326,-1.2294,-1.2298,-1.2275,-1.2256,-1.2275,-1.2257,-1.2254,-1.2258,-1.2235,-1.2282,-1.227,-1.2242,-1.2201,-1.2266,-1.2289,-1.2298,-1.217,-1.2168,-1.2167,-1.2166,0,0,-1.2406,-1.2374,-1.2381,-1.2376,-1.2355,-1.236,-1.2376,-1.2373,-1.2379,-1.237,-1.2384,-1.239,-1.2364,-1.236,-1.2336,-1.2354,-1.2413,-1.2323,-1.2322,-1.2342,-1.2467,-1.249,-1.2502,-1.2394,-1.2395,-1.2397,-1.2469,0,-1.2472,-1.2497,-1.2466,-1.2498,-1.2506,-1.2462,-1.2477,-1.2467,-1.245,-1.2456,-1.2437,-1.2443,-1.2407,-1.2405,-1.2421,-1.2403,-1.2438,-1.2397,-1.2409,-1.241,-1.2415,-1.2514,-1.2537,-1.2606,-1.2478,-1.2479,-1.248,0,-1.2551,-1.2547,-1.2581,-1.256,-1.2562,-1.2575,-1.2572,-1.2577,-1.2565,-1.2552,-1.255,-1.2521,-1.2538,-1.2498,-1.2522,-1.2495,-1.2498,-1.2491,-1.2492,-1.2493,-1.245,-1.2519,-1.2627,-1.2638,-1.2494,-1.2493,-1.2492,0,-1.263,-1.2633,-1.2653,-1.265,-1.2626,-1.2637,-1.2627,-1.2614,-1.2615,-1.2612,-1.2613,-1.2613,-1.2613,-1.2614,-1.2588,-1.2561,-1.2616,-1.2573,-1.2608,-1.2609,-1.2622,-1.2621,-1.2734,-1.2621,-1.2621,-1.2621,-1.2621,0,-1.2708,-1.273,-1.2689,-1.2702,-1.2727,-1.2692,-1.2718,-1.2704,-1.2694,-1.2705,-1.2667,-1.2679,-1.2642,-1.265,-1.263,-1.2654,-1.2654,-1.2646,-1.264,-1.265,-1.2651,-1.2652,-1.2647,-1.2624,-1.2623,-1.2623,-1.2622,0,-1.28,-1.2772,-1.2793,-1.2769,-1.2763,-1.2783,-1.2764,-1.2776,-1.2757,-1.2772,-1.2774,-1.2746,-1.2754,-1.2727,-1.2731,-1.2717,-1.2754,-1.274,-1.2758,-1.2754,-1.2791,-1.2789,-1.2909,-1.2924,-1.2801,-1.2802,-1.2803,0,-1.2851,-1.2868,-1.2846,-1.2851,-1.2844,-1.2851,-1.2853,-1.282,-1.2823,-1.2813,-1.2828,-1.2833,-1.2835,-1.2851,-1.2832,-1.2835,-1.2822,-1.2864,-1.2822,-1.2833,-1.2825,-1.2825,-1.2828,-1.2873,-1.2874,-1.2876,-1.2877,0,-1.2947,-1.2934,-1.2937,-1.2936,-1.2939,-1.2937,-1.2932,-1.2939,-1.2904,-1.291,-1.2918,-1.292,-1.2924,-1.2931,-1.2931,-1.2923,-1.2896,-1.289,-1.2898,-1.2909,-1.292,-1.2917,-1.2783,-1.2887,-1.2886,-1.2886,-1.2885,-1.2885,-1.3022,-1.3036,-1.3024,-1.3029,-1.3022,-1.302,-1.3031,-1.3015,-1.302,-1.3021,-1.3002,-1.3015,-1.3006,-1.3003,-1.2998,-1.3009,-1.299,-1.3001,-1.3005,-1.3009,-1.3016,-1.2917,-1.3009,-1.3008,-1.3008,-1.3008,-1.3007,0,-1.3118,-1.3108,-1.3114,-1.3109,-1.3114,-1.3087,-1.3081,-1.3088,-1.3099,-1.3093,-1.3096,-1.3107,-1.3114,-1.3097,-1.3101,-1.3114,-1.3101,-1.3116,-1.3116,-1.3115,-1.3031,-1.3025,-1.3126,-1.3126,-1.3126,-1.3126,-1.3126,-1.3126,-1.3168,-1.3191,-1.3177,-1.3197,-1.3187,-1.3199,-1.3198,-1.3197,-1.3192,-1.3205,-1.3211,-1.3199,-1.3189,-1.3193,-1.32,-1.3194,-1.3199,-1.3219,-1.321,-1.3132,-1.312,-1.3109,-1.3103,-1.322,-1.322,-1.3292,-1.3293,-1.3294]},{"header":{"parameterUnit":"m.s-1","parameterCategory":1,"la1":30.2991,"la2":30.254,"lo1":-89.0895,"lo2":-89.0444,"dy":0.0017,"dx":0.0017,"nx":28,"ny":28,"refTime":"2023-09-23T03:00:00:Z","depth":0,"parameterNumber":3,"parameterNumberName":"V-component_of_WINDS"},"data":[0,0,0,0,0,0,0,0,0,0,0,0,0,0,0,0,0,0,0,0,0,0,0,0,0,0,0,0,0,0,0,0,0,0,0,0,0,0,0,0,0,0,0,0,0,0,0,0,0,0,0,0,0,0,0,0,0,0,2.9516,2.9516,0,2.952,2.952,2.952,2.9546,2.9546,2.9547,2.9547,2.9549,2.9549,2.9548,0,0,0,0,0,0,0,0,0,0,0,0,0,2.9527,2.9526,2.9516,2.9516,2.9516,2.952,2.952,2.952,2.9545,2.9546,2.9547,2.9548,2.9549,2.9549,2.9548,0,0,0,0,0,0,0,0,0,0,0,0,0,2.9525,2.9526,2.9515,2.9529,2.953,2.952,2.952,2.952,2.9545,2.9546,2.9547,2.9548,2.955,2.9549,2.9548,2.9525,0,0,2.9546,2.9545,0,0,0,0,0,0,0,0,2.9526,2.9525,2.9527,2.9528,2.9529,2.9533,2.9525,2.9521,2.9545,2.9539,2.9547,2.9549,2.9543,2.9543,2.9542,2.9525,2.9525,2.9546,2.9545,2.9545,2.9545,0,0,0,0,0,0,0,2.9526,2.9525,2.9517,2.9527,2.9528,2.9534,2.9535,2.9524,2.9536,2.954,2.9542,2.9542,2.9544,2.9542,2.9542,2.9525,2.9546,2.9545,2.9544,2.9544,2.9487,2.9486,0,0,0,0,0,0,2.9524,2.9525,2.9517,2.9517,2.953,2.9533,2.9534,2.9531,2.9536,2.9538,2.9541,2.9543,2.9543,2.9543,2.9542,2.9513,2.9545,2.9544,2.9544,2.9488,2.9487,2.9486,0,0,0,0,0,0,2.9524,2.9523,2.9517,2.9522,2.9521,2.9532,2.9528,2.9531,2.9529,2.9537,2.9539,2.9538,2.9544,2.9543,2.9528,2.9513,2.9544,2.9543,2.9489,2.9488,2.9486,2.9455,0,0,0,0,0,0,2.9525,2.9523,2.9515,2.9521,2.9521,2.9504,2.9527,2.953,2.9528,2.953,2.9534,2.9536,2.9545,2.9529,2.9528,2.9513,2.9542,2.9491,2.9488,2.9487,2.9458,2.9453,2.9449,0,0,0,0,0,2.9525,2.9506,2.9514,2.9513,2.9511,2.9503,2.9503,2.9514,2.9527,2.9518,2.9523,2.9536,2.9516,2.9528,2.9526,2.951,2.9491,2.9489,2.9487,2.946,2.9454,2.9449,0,0,0,0,0,0,2.9496,2.9507,2.9516,2.9499,2.95,2.9507,2.9496,2.9508,2.9505,2.9507,2.9521,2.9521,2.9504,2.9506,2.9519,2.9487,2.9506,2.9503,2.9486,2.948,2.9476,2.9474,2.9542,0,0,0,0,0,2.9488,2.9482,2.9491,2.9475,2.9475,2.9486,2.9483,2.9491,2.9493,2.9493,2.9497,2.9497,2.9491,2.9486,2.9481,2.9459,2.9459,2.9448,2.9443,2.944,2.9436,2.9423,2.9417,2.9478,2.9478,2.9478,0,0,2.947,2.9476,2.947,2.9469,2.9471,2.9463,2.9486,2.9476,2.947,2.9491,2.9477,2.9481,2.9481,2.9463,2.9454,2.9464,2.942,2.9437,2.9434,2.9432,2.942,2.9414,2.9409,2.9476,2.9477,2.9477,0,0,2.9434,2.9438,2.9424,2.9426,2.9429,2.9436,2.9433,2.9439,2.9442,2.9428,2.9444,2.9436,2.9426,2.9425,2.9423,2.9387,2.9398,2.9385,2.9361,2.9348,2.9343,2.9339,2.9323,2.9318,2.9382,2.9382,2.9382,0,2.9411,2.94,2.9415,2.9405,2.9403,2.9423,2.9408,2.9409,2.941,2.9407,2.9419,2.9405,2.9407,2.9387,2.9379,2.9378,2.9373,2.9383,2.9343,2.9338,2.9335,2.932,2.9314,2.9381,2.9381,2.9381,2.9381,0,2.9371,2.9364,2.9352,2.9352,2.935,2.9337,2.9349,2.9345,2.9354,2.936,2.9345,2.9349,2.9344,2.9341,2.935,2.9322,2.9327,2.9341,2.9359,2.9327,2.9313,2.9308,2.9378,2.9379,2.9379,2.938,0,0,2.9314,2.9324,2.9319,2.9319,2.9324,2.9318,2.9306,2.9302,2.9297,2.9298,2.9286,2.9277,2.9289,2.9287,2.9297,2.9285,2.9254,2.93,2.93,2.9289,2.922,2.9208,2.9201,2.9262,2.9261,2.926,2.9219,0,2.9277,2.9257,2.9271,2.9248,2.924,2.926,2.925,2.9251,2.9256,2.925,2.9256,2.9248,2.9266,2.9265,2.9255,2.9259,2.9239,2.9263,2.9249,2.9249,2.9245,2.9195,2.9182,2.9143,2.9214,2.9213,2.9213,0,2.923,2.9229,2.9206,2.9212,2.9209,2.9199,2.9196,2.919,2.9192,2.9197,2.9195,2.9207,2.9194,2.9215,2.9196,2.9212,2.9208,2.9209,2.9208,2.9204,2.9226,2.9187,2.9131,2.9123,2.9205,2.9206,2.9206,0,2.9187,2.918,2.9165,2.9165,2.9172,2.9164,2.9167,2.917,2.9166,2.9164,2.9161,2.9157,2.9154,2.915,2.916,2.9175,2.914,2.9162,2.9141,2.914,2.913,2.913,2.9069,2.9132,2.9133,2.9133,2.9133,0,2.9142,2.9127,2.9146,2.9136,2.9118,2.9134,2.9117,2.9121,2.9124,2.9114,2.9132,2.9122,2.9138,2.913,2.9138,2.912,2.9119,2.9121,2.9123,2.9117,2.9117,2.9112,2.9114,2.9131,2.9131,2.9132,2.9132,0,2.909,2.9103,2.9087,2.9096,2.9097,2.9084,2.9091,2.9081,2.9089,2.9077,2.9075,2.9086,2.9077,2.9088,2.908,2.9085,2.906,2.9068,2.9059,2.906,2.9038,2.9038,2.8969,2.896,2.9032,2.9032,2.9031,0,2.9059,2.9047,2.9055,2.9051,2.9052,2.9045,2.9042,2.9057,2.9053,2.9054,2.9044,2.9037,2.9032,2.9017,2.9023,2.9017,2.9022,2.8998,2.9021,2.9015,2.9018,2.9017,2.9014,2.8992,2.8991,2.8991,2.899,0,2.9001,2.9008,2.9003,2.9,2.8996,2.8994,2.8994,2.8989,2.9005,2.8999,2.8991,2.8987,2.8979,2.8971,2.8967,2.8968,2.898,2.8984,2.8978,2.8971,2.8965,2.8964,2.9043,2.8984,2.8985,2.8985,2.8986,2.8986,2.8956,2.8946,2.895,2.8944,2.8945,2.8944,2.8936,2.8943,2.8936,2.8931,2.8941,2.893,2.8931,2.8927,2.8927,2.8917,2.8927,2.892,2.8917,2.8914,2.8909,2.897,2.8917,2.8917,2.8918,2.8918,2.8918,0,2.8896,2.89,2.8895,2.8894,2.8888,2.8904,2.8904,2.8898,2.8888,2.8889,2.8884,2.8873,2.8866,2.8872,2.8866,2.8857,2.8862,2.8854,2.8853,2.8852,2.8903,2.8907,2.8849,2.8849,2.8849,2.8849,2.8849,2.8849,2.8864,2.8848,2.8855,2.8839,2.8843,2.8833,2.8831,2.883,2.8831,2.8818,2.8813,2.8818,2.882,2.8814,2.8807,2.8809,2.8804,2.8793,2.8797,2.8843,2.8849,2.8855,2.8859,2.8793,2.8793,2.8747,2.8746,2.8746]}]]